Tiempo cada hora Çaykara

Hoy, 17 Abril, Sábado

Tiempo Temperatura Precipitaciones Viento Presión Humedad
00:00 +6°C° 0 mm 2 mps 632 mmHg 73%
01:00 +5°C° 0 mm 2 mps 632 mmHg 75%
02:00 +5°C° 0 mm 2 mps 632 mmHg 76%
03:00 +6°C° 0 mm 1 mps 631 mmHg 78%
04:00 +6°C° 0 mm 1 mps 631 mmHg 78%
05:00 +5°C° 0 mm 2 mps 631 mmHg 79%
06:00 +5°C° 0 mm 2 mps 631 mmHg 79%
07:00 +7°C° 0 mm 1 mps 632 mmHg 76%
08:00 +8°C° 0 mm 1 mps 632 mmHg 73%
09:00 +10°C° 0 mm 1 mps 633 mmHg 70%
10:00 +10°C° 0 mm 1 mps 633 mmHg 68%
11:00 +10°C° 0 mm 2 mps 634 mmHg 66%
12:00 +12°C° 0 mm 2 mps 634 mmHg 64%
13:00 +12°C° 0.1 mm 2 mps 634 mmHg 64%
14:00 +12°C° 0.1 mm 2 mps 633 mmHg 63%
15:00 +12°C° 0 mm 2 mps 633 mmHg 63%
16:00 +12°C° 0.2 mm 1 mps 633 mmHg 68%
17:00 +11°C° 0.2 mm 1 mps 633 mmHg 72%
18:00 +10°C° 0.2 mm 1 mps 633 mmHg 77%
19:00 +10°C° 0.1 mm 1 mps 633 mmHg 77%
20:00 +10°C° 0.1 mm 1 mps 633 mmHg 77%
21:00 +8°C° 0.1 mm 2 mps 633 mmHg 77%
22:00 +8°C° 0.1 mm 2 mps 633 mmHg 78%
23:00 +8°C° 0.1 mm 3 mps 632 mmHg 79%

Mañana, 18 Abril, Domingo

Tiempo Temperatura Precipitaciones Viento Presión Humedad
00:00 +8°C° 0.1 mm 3 mps 632 mmHg 80%
01:00 +8°C° 0 mm 3 mps 632 mmHg 79%
02:00 +8°C° 0 mm 3 mps 632 mmHg 77%
03:00 +8°C° 0 mm 3 mps 631 mmHg 76%
04:00 +8°C° 0 mm 3 mps 631 mmHg 75%
05:00 +7°C° 0 mm 4 mps 631 mmHg 74%
06:00 +7°C° 0 mm 4 mps 631 mmHg 73%
07:00 +10°C° 0 mm 3 mps 632 mmHg 67%
08:00 +12°C° 0 mm 3 mps 632 mmHg 61%
09:00 +15°C° 0 mm 2 mps 633 mmHg 55%
10:00 +16°C° 0 mm 2 mps 633 mmHg 54%
11:00 +16°C° 0 mm 2 mps 633 mmHg 52%
12:00 +16°C° 0 mm 1 mps 634 mmHg 50%
13:00 +16°C° 0.1 mm 1 mps 634 mmHg 53%
14:00 +15°C° 0.1 mm 2 mps 634 mmHg 57%
15:00 +15°C° 0.1 mm 2 mps 634 mmHg 60%
16:00 +14°C° 0.3 mm 2 mps 634 mmHg 67%
17:00 +12°C° 0.3 mm 2 mps 634 mmHg 75%
18:00 +10°C° 0.3 mm 2 mps 633 mmHg 82%
19:00 +10°C° 0.2 mm 2 mps 633 mmHg 81%
20:00 +10°C° 0.2 mm 2 mps 633 mmHg 80%
21:00 +10°C° 0.2 mm 2 mps 633 mmHg 79%
22:00 +10°C° 0 mm 2 mps 633 mmHg 79%
23:00 +9°C° 0 mm 3 mps 633 mmHg 79%

Pasado mañana, 19 Abril, Lunes

Tiempo Temperatura Precipitaciones Viento Presión Humedad
00:00 +9°C° 0 mm 3 mps 633 mmHg 78%
01:00 +9°C° 0 mm 3 mps 633 mmHg 78%
02:00 +9°C° 0 mm 3 mps 632 mmHg 77%
03:00 +9°C° 0 mm 3 mps 632 mmHg 76%
04:00 +9°C° 0 mm 3 mps 632 mmHg 74%
05:00 +9°C° 0 mm 3 mps 632 mmHg 72%
06:00 +9°C° 0 mm 3 mps 632 mmHg 71%
07:00 +12°C° 0 mm 2 mps 632 mmHg 66%
08:00 +13°C° 0 mm 2 mps 633 mmHg 62%
09:00 +15°C° 0 mm 1 mps 633 mmHg 58%
10:00 +16°C° 0 mm 2 mps 633 mmHg 55%
11:00 +16°C° 0 mm 2 mps 633 mmHg 52%
12:00 +17°C° 0 mm 3 mps 633 mmHg 50%
13:00 +17°C° 0 mm 2 mps 633 mmHg 52%
14:00 +16°C° 0 mm 2 mps 633 mmHg 54%
15:00 +16°C° 0 mm 2 mps 633 mmHg 56%
16:00 +16°C° 0 mm 2 mps 633 mmHg 58%
17:00 +15°C° 0 mm 2 mps 632 mmHg 61%
18:00 +15°C° 0 mm 2 mps 632 mmHg 63%
19:00 +13°C° 0 mm 3 mps 632 mmHg 63%
20:00 +13°C° 0 mm 3 mps 631 mmHg 63%
21:00 +12°C° 0 mm 4 mps 631 mmHg 64%
22:00 +12°C° 0 mm 4 mps 630 mmHg 62%
23:00 +12°C° 0 mm 4 mps 630 mmHg 61%

20 Abril, Martes

Tiempo Temperatura Precipitaciones Viento Presión Humedad
00:00 +12°C° 0 mm 4 mps 630 mmHg 60%
01:00 +12°C° 0 mm 4 mps 629 mmHg 59%
02:00 +12°C° 0 mm 5 mps 628 mmHg 59%
03:00 +12°C° 0 mm 5 mps 628 mmHg 58%
04:00 +12°C° 0 mm 5 mps 628 mmHg 57%
05:00 +13°C° 0 mm 5 mps 628 mmHg 56%
06:00 +13°C° 0 mm 6 mps 627 mmHg 55%
07:00 +14°C° 0 mm 6 mps 628 mmHg 53%
08:00 +15°C° 0 mm 6 mps 628 mmHg 52%
09:00 +16°C° 0 mm 6 mps 628 mmHg 50%
10:00 +17°C° 0 mm 6 mps 629 mmHg 49%
11:00 +17°C° 0 mm 7 mps 629 mmHg 48%
12:00 +18°C° 0 mm 7 mps 629 mmHg 46%
13:00 +16°C° 0.1 mm 6 mps 629 mmHg 53%
14:00 +14°C° 0.1 mm 6 mps 629 mmHg 60%
15:00 +13°C° 0.1 mm 5 mps 629 mmHg 67%
16:00 +11°C° 0.5 mm 4 mps 628 mmHg 74%
17:00 +10°C° 0.5 mm 3 mps 628 mmHg 80%
18:00 +9°C° 0.5 mm 2 mps 628 mmHg 87%
19:00 +8°C° 0.3 mm 2 mps 628 mmHg 89%
20:00 +8°C° 0.3 mm 2 mps 629 mmHg 91%
21:00 +8°C° 0.3 mm 1 mps 629 mmHg 93%
22:00 +8°C° 0.3 mm 1 mps 629 mmHg 93%
23:00 +7°C° 0.3 mm 1 mps 629 mmHg 93%

21 Abril, Miércoles

Tiempo Temperatura Precipitaciones Viento Presión Humedad
00:00 +7°C° 0.3 mm 1 mps 629 mmHg 93%
01:00 +7°C° 0.1 mm 1 mps 629 mmHg 93%
02:00 +7°C° 0.1 mm 1 mps 629 mmHg 93%
03:00 +7°C° 0.1 mm 1 mps 629 mmHg 93%
04:00 +7°C° 0.1 mm 1 mps 629 mmHg 93%
05:00 +6°C° 0.1 mm 1 mps 629 mmHg 92%
06:00 +5°C° 0.1 mm 0 mps 629 mmHg 92%
07:00 +7°C° 0 mm 1 mps 630 mmHg 87%
08:00 +8°C° 0 mm 1 mps 630 mmHg 83%
09:00 +9°C° 0 mm 1 mps 630 mmHg 78%
10:00 +8°C° 0 mm 2 mps 631 mmHg 78%
11:00 +8°C° 0 mm 2 mps 631 mmHg 77%
12:00 +9°C° 0 mm 2 mps 631 mmHg 77%
13:00 +9°C° 0.1 mm 2 mps 631 mmHg 77%
14:00 +8°C° 0.1 mm 2 mps 631 mmHg 78%
15:00 +8°C° 0.1 mm 2 mps 631 mmHg 78%
16:00 +8°C° 0.1 mm 2 mps 631 mmHg 81%
17:00 +7°C° 0.1 mm 2 mps 631 mmHg 84%
18:00 +7°C° 0.1 mm 1 mps 631 mmHg 87%
19:00 +7°C° 0 mm 1 mps 631 mmHg 88%
20:00 +7°C° 0 mm 1 mps 631 mmHg 88%
21:00 +6°C° 0 mm 1 mps 631 mmHg 88%
22:00 +6°C° 0 mm 1 mps 631 mmHg 88%
23:00 +6°C° 0 mm 1 mps 631 mmHg 88%

22 Abril, Jueves

Tiempo Temperatura Precipitaciones Viento Presión Humedad
00:00 +6°C° 0 mm 1 mps 631 mmHg 89%
01:00 +5°C° 0 mm 1 mps 631 mmHg 89%
02:00 +5°C° 0 mm 1 mps 631 mmHg 90%
03:00 +5°C° 0 mm 1 mps 631 mmHg 90%
04:00 +5°C° 0 mm 1 mps 631 mmHg 89%
05:00 +5°C° 0 mm 1 mps 631 mmHg 87%
06:00 +5°C° 0 mm 1 mps 631 mmHg 86%
07:00 +6°C° 0 mm 1 mps 632 mmHg 82%
08:00 +8°C° 0 mm 1 mps 632 mmHg 79%
09:00 +9°C° 0 mm 1 mps 633 mmHg 76%
10:00 +8°C° 0.1 mm 2 mps 633 mmHg 75%
11:00 +8°C° 0.1 mm 2 mps 633 mmHg 75%
12:00 +8°C° 0.1 mm 2 mps 633 mmHg 74%
13:00 +8°C° 0.2 mm 2 mps 633 mmHg 76%
14:00 +8°C° 0.2 mm 2 mps 633 mmHg 77%
15:00 +8°C° 0.2 mm 2 mps 633 mmHg 79%
16:00 +7°C° 0.1 mm 2 mps 633 mmHg 82%
17:00 +6°C° 0.1 mm 2 mps 633 mmHg 84%
18:00 +7°C° 0.1 mm 1 mps 633 mmHg 87%
19:00 +6°C° 0 mm 1 mps 633 mmHg 87%
20:00 +6°C° 0 mm 1 mps 633 mmHg 88%
21:00 +6°C° 0 mm 1 mps 633 mmHg 88%
22:00 +5°C° 0 mm 1 mps 633 mmHg 87%
23:00 +5°C° 0 mm 1 mps 633 mmHg 86%
Mostrar más

Necesitamos Su Consentimiento

Meteoprog y nuestros Proveedores de Servicios pueden almacenar y acceder a sus datos personales como cookies, identificadores de dispositivo u otras tecnologías similares de su dispositivo y procesar dichos datos para personalizar contenido y anuncios, además de ofrecer funciones de redes sociales y analizar el tráfico.

  • Almacenar y/o acceder a información en su dispositivo

    Se puede almacenar o acceder a cookies, identificadores de dispositivo u otra información de su dispositivo para los fines anteriormente indicados.

  • Anuncios y contenido personalizados, medición de anuncios y contenido, percepciones del público, y desarrollo de productos

    Los anuncios y el contenido pueden personalizarse en base a su perfil. Se pueden añadir más datos para personalizar mejor los anuncios y contenidos. Se puede medir el rendimiento de los anuncios y contenidos. Se puede obtener la percepción sobre el público que ha visto los anuncios y contenidos. Dichos datos pueden usarse para desarrollar o mejorar la experiencia del usuario, sistemas y software.

Al hacer clic en ‘Estoy De Acuerdo’ usted permitirá el uso de las cookies, identificadores de dispositivo, balizas web u otras tecnologías similares indicadas. Su configuración puede cambiarse desde el navegador de su dispositivo.

Para ciertos fines, los intereses legítimos pueden ser considerados por encima del consentimiento. Puede leer más sobre ello en nuestra Política de Privacidad y Cookies.